| time (UTC) | temp F | wind direction | speed knots | gust knots | rain 1hr in | rain 24hr in | rain mn in | humidity % | barometer mb |
| 20260509110043 | 47 | 307 | 0.0 | 0.0 | 0.00 | 0.00 | 0.00 | 57 | 1011.7 |
| 20260509104540 | 47 | 307 | 0.0 | 0.0 | 0.00 | 0.00 | 0.00 | 60 | 1011.9 |
| 20260509103038 | 47 | 307 | 0.0 | 0.0 | 0.00 | 0.00 | 0.00 | 63 | 1011.9 |
| 20260509101548 | 47 | 307 | 0.0 | 0.0 | 0.00 | 0.00 | 0.00 | 63 | 1012.1 |
| 20260509100035 | 48 | 307 | 0.0 | 0.0 | 0.00 | 0.00 | 0.00 | 65 | 1012.1 |
| 20260509094533 | 48 | 307 | 0.0 | 0.0 | 0.00 | 0.00 | 0.00 | 64 | 1012.2 |
| 20260509093033 | 48 | 307 | 0.0 | 0.0 | 0.00 | 0.00 | 0.00 | 64 | 1012.2 |
| 20260509091528 | 49 | 307 | 0.0 | 0.0 | 0.00 | 0.00 | 0.00 | 63 | 1012.5 |
| 20260509090026 | 49 | 307 | 0.0 | 0.0 | 0.00 | 0.00 | 0.00 | 62 | 1012.7 |
| 20260509084526 | 49 | 307 | 0.0 | 0.0 | 0.00 | 0.00 | 0.00 | 59 | 1012.7 |
| 20260509083022 | 49 | 307 | 0.0 | 0.0 | 0.00 | 0.00 | 0.00 | 57 | 1012.8 |
| 20260509081521 | 49 | 307 | 0.0 | 0.0 | 0.00 | 0.00 | 0.00 | 55 | 1012.8 |
| 20260509080021 | 49 | 307 | 0.0 | 0.0 | 0.00 | 0.00 | 0.00 | 54 | 1012.8 |
| 20260509074517 | 50 | 307 | 0.0 | 0.0 | 0.00 | 0.00 | 0.00 | 54 | 1013.0 |
| 20260509073015 | 50 | 307 | 0.0 | 0.0 | 0.00 | 0.00 | 0.00 | 53 | 1013.2 |
| 20260509071513 | 50 | 307 | 0.0 | 0.0 | 0.00 | 0.00 | 0.00 | 48 | 1013.3 |
| 20260509070010 | 50 | 307 | 0.0 | 0.0 | 0.00 | 0.00 | 0.00 | 47 | 1013.3 |
| 20260509064510 | 50 | 307 | 0.0 | 0.0 | 0.00 | 0.00 | 0.00 | 46 | 1013.3 |
| 20260509063009 | 51 | 307 | 0.0 | 0.0 | 0.00 | 0.00 | 0.00 | 46 | 1013.3 |
| 20260509061508 | 51 | 307 | 0.0 | 0.0 | 0.00 | 0.00 | 0.00 | 47 | 1013.4 |
| 20260509060008 | 51 | 307 | 0.0 | 0.0 | 0.00 | 0.00 | 0.00 | 45 | 1013.3 |
| 20260509054507 | 52 | 307 | 0.0 | 0.0 | 0.00 | 0.00 | 0.00 | 45 | 1013.2 |
| 20260509053007 | 52 | 307 | 0.0 | 0.0 | 0.00 | 0.00 | 0.00 | 45 | 1013.2 |
| 20260509051511 | 53 | 307 | 0.0 | 0.0 | 0.00 | 0.00 | 0.00 | 45 | 1013.2 |
| 20260509050005 | 53 | 307 | 0.0 | 0.0 | 0.00 | 0.00 | 0.00 | 46 | 1013.1 |
| 20260509044505 | 54 | 307 | 0.0 | 0.0 | 0.00 | 0.00 | 0.00 | 45 | 1013.1 |
| 20260509043005 | 55 | 307 | 0.0 | 0.0 | 0.00 | 0.00 | 0.00 | 46 | 1012.9 |
| 20260509041504 | 56 | 307 | 0.0 | 0.0 | 0.00 | 0.00 | 0.00 | 47 | 1012.8 |
| 20260509040003 | 57 | 307 | 0.0 | 0.0 | 0.00 | 0.00 | 0.00 | 45 | 1012.7 |
| 20260509034511 | 59 | 307 | 0.0 | 0.0 | 0.00 | 0.00 | 0.00 | 43 | 1012.6 |
| 20260509033002 | 62 | 307 | 0.0 | 0.0 | 0.00 | 0.00 | 0.00 | 46 | 1012.4 |
| 20260509031501 | 64 | 307 | 0.0 | 0.0 | 0.00 | 0.00 | 0.00 | 46 | 1012.3 |
| 20260509030000 | 66 | 307 | 0.0 | 0.0 | 0.00 | 0.00 | 0.00 | 44 | 1012.3 |
| 20260509024600 | 67 | 307 | 0.0 | 0.0 | 0.00 | 0.00 | 0.00 | 43 | 1012.2 |
| 20260509023100 | 69 | 307 | 0.0 | 0.0 | 0.00 | 0.00 | 0.00 | 42 | 1012.2 |
| 20260509021600 | 69 | 323 | 0.0 | 0.0 | 0.00 | 0.00 | 0.00 | 41 | 1012.1 |
| 20260509020059 | 70 | 297 | 0.0 | 1.7 | 0.00 | 0.00 | 0.00 | 39 | 1012.2 |
| 20260509014558 | 71 | 348 | 0.0 | 2.6 | 0.00 | 0.00 | 0.00 | 37 | 1012.2 |
| 20260509013059 | 72 | 309 | 0.0 | 7.8 | 0.00 | 0.00 | 0.00 | 35 | 1012.2 |
| 20260509011558 | 73 | 333 | 0.0 | 2.6 | 0.00 | 0.00 | 0.00 | 33 | 1012.3 |
| 20260509004620 | 75 | 324 | 0.0 | 9.6 | 0.00 | 0.00 | 0.00 | 31 | 1012.3 |
| 20260509003055 | 75 | 292 | 0.0 | 11.3 | 0.00 | 0.00 | 0.00 | 29 | 1012.1 |
| 20260509001555 | 76 | 323 | 0.0 | 11.3 | 0.00 | 0.00 | 0.00 | 29 | 1012.3 |
| 20260509000053 | 76 | 43 | 0.0 | 14.8 | 0.00 | 0.00 | 0.00 | 27 | 1012.4 |
| 20260508234552 | 77 | 292 | 0.0 | 7.8 | 0.00 | 0.00 | 0.00 | 32 | 1012.4 |
| 20260508233052 | 77 | 293 | 1.7 | 10.4 | 0.00 | 0.00 | 0.00 | 31 | 1012.3 |
| 20260508231555 | 78 | 313 | 0.0 | 9.6 | 0.00 | 0.00 | 0.00 | 35 | 1012.4 |
| 20260508230051 | 79 | 297 | 0.9 | 8.7 | 0.00 | 0.00 | 0.00 | 34 | 1012.5 |
| 20260508224551 | 80 | 315 | 0.0 | 1.7 | 0.00 | 0.00 | 0.00 | 30 | 1012.6 |
| 20260508223049 | 81 | 355 | 0.0 | 4.3 | 0.00 | 0.00 | 0.00 | 26 | 1012.7 |
| 20260508221543 | 82 | 350 | 0.0 | 7.8 | 0.00 | 0.00 | 0.00 | 24 | 1013.0 |
| 20260508220040 | 83 | 305 | 0.9 | 10.4 | 0.00 | 0.00 | 0.00 | 23 | 1013.3 |
| 20260508214555 | 83 | 5 | 0.0 | 9.6 | 0.00 | 0.00 | 0.00 | 22 | 1013.3 |
| 20260508213037 | 83 | 311 | 0.0 | 13.9 | 0.00 | 0.00 | 0.00 | 23 | 1013.3 |
| 20260508211636 | 84 | 283 | 0.0 | 13.9 | 0.00 | 0.00 | 0.00 | 20 | 1013.4 |
| 20260508210037 | 83 | 316 | 0.9 | 10.4 | 0.00 | 0.00 | 0.00 | 17 | 1013.6 |
| 20260508204536 | 83 | 288 | 0.9 | 11.3 | 0.00 | 0.00 | 0.00 | 22 | 1013.7 |
| 20260508203031 | 83 | 313 | 0.9 | 13.0 | 0.00 | 0.00 | 0.00 | 22 | 1013.6 |
| 20260508201531 | 83 | 351 | 0.0 | 10.4 | 0.00 | 0.00 | 0.00 | 20 | 1013.8 |
| 20260508200037 | 83 | 325 | 0.0 | 12.2 | 0.00 | 0.00 | 0.00 | 23 | 1013.9 |
| 20260508194528 | 83 | 317 | 0.0 | 9.6 | 0.00 | 0.00 | 0.00 | 21 | 1013.9 |
| 20260508193035 | 83 | 360 | 1.7 | 15.6 | 0.00 | 0.00 | 0.00 | 17 | 1014.1 |
| 20260508191532 | 83 | 355 | 0.9 | 16.5 | 0.00 | 0.00 | 0.00 | 19 | 1014.1 |
| 20260508190044 | 82 | 324 | 1.7 | 12.2 | 0.00 | 0.00 | 0.00 | 19 | 1014.0 |
| 20260508184625 | 82 | 303 | 0.0 | 12.2 | 0.00 | 0.00 | 0.00 | 20 | 1014.1 |
| 20260508183033 | 82 | 305 | 0.0 | 7.8 | 0.00 | 0.00 | 0.00 | 19 | 1014.2 |
| 20260508181521 | 82 | 249 | 1.7 | 13.0 | 0.00 | 0.00 | 0.00 | 19 | 1014.3 |
| 20260508180020 | 82 | 265 | 1.7 | 13.0 | 0.00 | 0.00 | 0.00 | 20 | 1014.2 |
| 20260508174518 | 81 | 348 | 0.0 | 12.2 | 0.00 | 0.00 | 0.00 | 20 | 1014.1 |
| 20260508173016 | 80 | 309 | 0.0 | 11.3 | 0.00 | 0.00 | 0.00 | 21 | 1014.3 |
| 20260508171517 | 79 | 293 | 0.0 | 10.4 | 0.00 | 0.00 | 0.00 | 24 | 1014.2 |
| 20260508170011 | 79 | 315 | 0.9 | 10.4 | 0.00 | 0.00 | 0.00 | 26 | 1014.0 |
| 20260508164515 | 77 | 327 | 0.0 | 11.3 | 0.00 | 0.00 | 0.00 | 27 | 1014.1 |
| 20260508163004 | 76 | 305 | 0.0 | 9.6 | 0.00 | 0.00 | 0.00 | 29 | 1014.1 |
| 20260508161606 | 74 | 321 | 0.0 | 7.8 | 0.00 | 0.00 | 0.00 | 32 | 1014.1 |
| 20260508160054 | 70 | 333 | 0.0 | 1.7 | 0.00 | 0.00 | 0.00 | 36 | 1014.0 |
| 20260508154549 | 66 | 321 | 0.0 | 4.3 | 0.00 | 0.00 | 0.00 | 44 | 1014.0 |
| 20260508153053 | 60 | 293 | 0.0 | 0.0 | 0.00 | 0.00 | 0.00 | 54 | 1013.9 |
| 20260508151539 | 57 | 310 | 0.0 | 0.0 | 0.00 | 0.00 | 0.00 | 64 | 1014.0 |
| 20260508150035 | 56 | 96 | 0.0 | 0.0 | 0.00 | 0.00 | 0.00 | 76 | 1014.0 |
| 20260508144533 | 54 | 96 | 0.0 | 0.0 | 0.00 | 0.00 | 0.00 | 76 | 1014.0 |
| 20260508143027 | 53 | 96 | 0.0 | 0.0 | 0.00 | 0.00 | 0.00 | 75 | 1014.0 |
| 20260508141525 | 51 | 96 | 0.0 | 0.0 | 0.00 | 0.00 | 0.00 | 76 | 1014.0 |
| 20260508140025 | 50 | 321 | 0.0 | 0.0 | 0.00 | 0.00 | 0.00 | 76 | 1013.9 |
| 20260508134521 | 49 | 321 | 0.0 | 0.0 | 0.00 | 0.00 | 0.00 | 75 | 1013.7 |
| 20260508133020 | 49 | 321 | 0.0 | 0.0 | 0.00 | 0.00 | 0.00 | 76 | 1013.6 |
| 20260508131519 | 49 | 321 | 0.0 | 0.0 | 0.00 | 0.00 | 0.00 | 75 | 1013.6 |
| 20260508130030 | 49 | 321 | 0.0 | 0.0 | 0.00 | 0.00 | 0.00 | 74 | 1013.4 |
| 20260508124516 | 49 | 321 | 0.0 | 0.0 | 0.00 | 0.00 | 0.00 | 74 | 1013.1 |
| 20260508123017 | 49 | 321 | 0.0 | 0.0 | 0.00 | 0.00 | 0.00 | 74 | 1013.1 |
| 20260508121514 | 49 | 321 | 0.0 | 0.0 | 0.00 | 0.00 | 0.00 | 73 | 1013.1 |
| 20260508120012 | 49 | 321 | 0.0 | 0.0 | 0.00 | 0.00 | 0.00 | 72 | 1013.1 |
| 20260508114510 | 49 | 321 | 0.0 | 0.0 | 0.00 | 0.00 | 0.00 | 70 | 1013.2 |
| 20260508113009 | 50 | 321 | 0.0 | 0.0 | 0.00 | 0.00 | 0.00 | 71 | 1013.2 |
| 20260508111508 | 50 | 321 | 0.0 | 0.0 | 0.00 | 0.00 | 0.00 | 71 | 1013.2 |